Regional Weather Roundup
Issued by NWS Burlington, VT

Home | Current Version | Previous Version | Text Only | Print | Product List | Glossary On
Versions: 1 2 3 4 5 6 7 8 9 10 11 12 13 14 15 16 17 18 19 20 21 22 23 24 25 26 27 28 29 30 31 32 33 34 35 36 37 38 39 40 41 42 43 44 45 46 47 48 49 50
000
ASUS41 KBTV 211830
RWRBTV
VERMONT REGIONAL WEATHER ROUNDUP
NATIONAL WEATHER SERVICE BURLINGTON VT
200 PM EDT MON AUG 21 2017

NOTE: "FAIR" INDICATES FEW OR NO CLOUDS BELOW 12,000 FEET WITH NO
SIGNIFICANT WEATHER AND/OR OBSTRUCTIONS TO VISIBILITY.

* THESE REPORTS ARE NOT UNDER NWS QUALITY CONTROL AND/OR DO NOT
  REPORT WEATHER SUCH AS PRECIPITATION AND FOG.

VTZ001>019-211900-
_____VERMONT_____


CITY           SKY/WX    TMP DP  RH WIND       PRES   REMARKS
BURLINGTON     MOSUNNY   84  65  52 SW9       30.06F
6HR MIN TEMP:  66; 6HR MAX TEMP:  85;

MONTPELIER     SUNNY     80  59  48 W9        30.14F
6HR MIN TEMP:  58; 6HR MAX TEMP:  81;

MORRISVILLE    SUNNY     80  56  43 SW9       30.09F
6HR MIN TEMP:  57; 6HR MAX TEMP:  82;

ST. JOHNSBURY*   N/A     80  60  50 MISG      30.07F
6HR MIN TEMP:  56; 6HR MAX TEMP:  81;

LYNDONVILLE*   FAIR      77  59  53 SW6       30.12F
6HR MIN TEMP:  55; 6HR MAX TEMP:  80;

MIDDLEBURY*    FAIR      79  65  61 S7        30.09F
6HR MIN TEMP:  62; 6HR MAX TEMP:  81;

RUTLAND*       MOSUNNY   80  61  52 SW3       30.12F
6HR MIN TEMP:  60; 6HR MAX TEMP:  81;

SPRINGFIELD    PTSUNNY   82  57  42 VRB7      30.11F
6HR MIN TEMP:  56; 6HR MAX TEMP:  83;

HIGHGATE*      FAIR      81  65  58 SW5       30.04F
6HR MIN TEMP:  67; 6HR MAX TEMP:  83;

NEWPORT*       FAIR      77  60  55 W12       30.09F
6HR MIN TEMP:  62; 6HR MAX TEMP:  78;

BENNINGTON     SUNNY     81  62  52 VRB5      30.14F
6HR MIN TEMP:  63; 6HR MAX TEMP:  82;

ISLAND POND*     N/A     79 N/A N/A W10         N/A
GALLUP MILLS*    N/A     79 N/A N/A MISG        N/A
UNION VILLAGE*   N/A     84 N/A N/A MISG        N/A
MT. MANSFIELD*   N/A     66 N/A N/A W22         N/A

_____LAKE CHAMPLAIN_____


CITY           SKY/WX    TMP DP  RH WIND       PRES   REMARKS
BURTON ISLAND*   N/A     77  68  73 SW10        N/A
COLCHESTER RF*   N/A     75  68  78 S13         N/A
DIAMOND ISL*     N/A     81  64  57 SE7         N/A

$$

NYZ007-026>031-035-052-083-087-211900-
_____NORTHERN NEW YORK_____


CITY           SKY/WX    TMP DP  RH WIND       PRES   REMARKS
PLATTSBURGH    MOSUNNY   79  67  66 SE10      30.05F
6HR MIN TEMP:  68; 6HR MAX TEMP:  82;

SARANAC LAKE   MOSUNNY   78  58  49 SW13G20   30.12S
6HR MIN TEMP:  59; 6HR MAX TEMP:  79;

MASSENA        SUNNY     83  62  49 SW14      30.05F
6HR MIN TEMP:  69; 6HR MAX TEMP:  83;

OGDENSBURG*    FAIR      82  64  55 SW8       30.05F
6HR MIN TEMP:  67; 6HR MAX TEMP:  85;

POTSDAM*       SUNNY     81  64  57 W9        30.06S
STARK FALLS*     N/A     79 N/A N/A SW9         N/A
WATERTOWN      SUNNY     80  65  59 SW10      30.08F
6HR MIN TEMP:  68; 6HR MAX TEMP:  82;

FT DRUM        SUNNY     82  61  49 SW13G18   30.08F
6HR MIN TEMP:  68; 6HR MAX TEMP:  84;

ALBANY         PTSUNNY   83  64  52 S6        30.12S
6HR MIN TEMP:  65; 6HR MAX TEMP:  85;

GLENS FALLS    SUNNY     81  65  58 S12       30.10F
6HR MIN TEMP:  63; 6HR MAX TEMP:  82;


$$
NHZ002-005-011-211900-
_____NEW HAMPSHIRE_____


CITY           SKY/WX    TMP DP  RH WIND       PRES   REMARKS
LEBANON        SUNNY     85  60  42 SW7       30.09F
6HR MIN TEMP:  58; 6HR MAX TEMP:  85;

KEENE            N/A    N/A N/A N/A MISG        N/A
MT WASHINGTON  FOG       52  52 100 W37G44      N/A  VSB 1/8
6HR MIN TEMP:  49; 6HR MAX TEMP:  53;

PLYMOUTH       PTSUNNY   82  60  46 W6        30.08F
6HR MIN TEMP:  55; 6HR MAX TEMP:  83;

WHITEFIELD     SUNNY     80  60  50 W12G17    30.10F
6HR MIN TEMP:  58; 6HR MAX TEMP:  80;


$$

_____REGIONAL QUEBEC LOCATIONS_____


CITY           SKY/WX    TMP DP  RH WIND       PRES   REMARKS
MONTREAL       MOSUNNY   82  66  57 SW14G22   30.01F
QUEBEC CITY    PTSUNNY   79  66  65 W16G25    29.97F
SHERBROOKE     PTSUNNY   79  64  61 SW9       30.05F

_____REGIONAL ONTARIO LOCATIONS_____


CITY           SKY/WX    TMP DP  RH WIND       PRES   REMARKS
OTTAWA         MOSUNNY   81  64  57 S13G20    30.03S

______KEY______
VSB  - VISIBILITY IN MILES
WCI  - WIND CHILL INDEX
HX   - HEAT INDEX
$$
NNNN



USA.gov is the U.S. government's official web portal to all federal, state and local government web resources and services.